Location: Akdamlar
(36.8729°N, 30.5187°E)
Time: 20:43:33
(UTC+00:00)

USA 186 - Pass Details

Date: 18 September 2020
Orbit: 261 x 425 km, 96.9° (Epoch: 12 October)

Event Time Altitude Azimuth Distance (km) Brightness Sun altitude
Exits shadow 17:17:52 34° 62° (ENE) 676 2.4 -16.1°
Drops below altitude 10° 17:20:31 10° 7° (N) 1,476 4.6 -16.6°
Sets 17:22:40 0° 358° (N) 2,364 5.8 -17.0°
